Location: Kumla
(59.1265°N, 15.1401°E)
Time: 08:03:21
(UTC+01:00)

Transit 4A - Pass Details

Date: 09 December 2023
Orbit: 870 x 973 km, 66.8° (Epoch: 02 March)

Event Time Altitude Azimuth Distance (km) Brightness Sun altitude
Rises 19:40:55 0° 209° (SSW) 3,660 11.2 -33.4°
Reaches altitude 10° 19:43:31 10° 206° (SSW) 2,711 10.4 -33.7°
Enters shadow 19:45:02 18° 202° (SSW) 2,175 9.9 -33.9°
